Location: Deep Valley
(39.7548°N, 80.4695°W)
Time: 11:47:15
(UTC+00:00)

ISS - Pass Details

Date: 26 November 2020
Orbit: 418 x 419 km, 51.6° (Epoch: 18 January)

Event Time Altitude Azimuth Distance (km) Brightness Sun altitude
Rises 23:58:55 0° 291° (WNW) 2,365 1.0 -22.6°
Reaches altitude 10° 00:02:02 10° 323° (NW) 1,501 -0.6 -23.1°
Enters shadow 00:02:54 12° 337° (NNW) 1,388 -1.0 -23.3°
